[[{"header":{"parameterUnit":"m.s-1","parameterCategory":1,"la1":30.2991,"la2":30.254,"lo1":-89.0895,"lo2":-89.0444,"dy":0.0017,"dx":0.0017,"nx":28,"ny":28,"refTime":"2023-10-24T21:00:00:Z","depth":0,"parameterNumber":2,"parameterNumberName":"U-component_of_WINDS"},"data":[0,0,0,0,0,0,0,0,0,0,0,0,0,0,0,0,0,0,0,0,0,0,0,0,0,0,0,0,0,0,0,0,0,0,0,0,0,0,0,0,0,0,0,0,0,0,0,0,0,0,0,0,0,0,0,0,0,0,-6.8512,-6.8513,0,-6.8614,-6.8615,-6.8617,-6.8593,-6.8591,-6.8589,-6.8587,-6.8683,-6.8688,-6.8692,0,0,0,0,0,0,0,0,0,0,0,0,0,-6.8291,-6.8295,-6.8512,-6.8513,-6.8514,-6.8614,-6.8615,-6.8617,-6.8593,-6.8591,-6.8588,-6.8586,-6.8682,-6.8687,-6.8692,0,0,0,0,0,0,0,0,0,0,0,0,0,-6.8389,-6.8296,-6.8512,-6.8515,-6.8516,-6.8614,-6.8616,-6.8617,-6.8593,-6.8591,-6.8588,-6.8585,-6.868,-6.8687,-6.8693,-6.8791,0,0,-6.8713,-6.8716,0,0,0,0,0,0,0,0,-6.8384,-6.8397,-6.8513,-6.8515,-6.8516,-6.8588,-6.8573,-6.8675,-6.8594,-6.8564,-6.8587,-6.8584,-6.8653,-6.8662,-6.8687,-6.8796,-6.88,-6.8714,-6.8718,-6.872,-6.8722,0,0,0,0,0,0,0,-6.8377,-6.8393,-6.8552,-6.8515,-6.8517,-6.8509,-6.852,-6.8592,-6.8623,-6.8566,-6.8565,-6.8578,-6.8654,-6.8681,-6.8689,-6.8801,-6.8713,-6.8719,-6.8723,-6.8726,-6.8999,-6.9002,0,0,0,0,0,0,-6.8369,-6.8387,-6.8549,-6.8555,-6.8442,-6.8516,-6.8528,-6.8568,-6.8623,-6.8628,-6.858,-6.8576,-6.8671,-6.8682,-6.8693,-6.8812,-6.872,-6.8727,-6.873,-6.8996,-6.9,-6.9003,0,0,0,0,0,0,-6.8365,-6.8384,-6.8545,-6.8471,-6.8491,-6.8523,-6.8568,-6.8571,-6.8598,-6.8633,-6.8638,-6.8602,-6.8669,-6.8683,-6.8768,-6.8815,-6.873,-6.8735,-6.8992,-6.8997,-6.9001,-6.9051,0,0,0,0,0,0,-6.8359,-6.8383,-6.8421,-6.8472,-6.8495,-6.862,-6.8571,-6.8575,-6.8611,-6.8607,-6.8655,-6.866,-6.8668,-6.8759,-6.8775,-6.8822,-6.8741,-6.8987,-6.8994,-6.9,-6.9045,-6.9057,-6.9067,0,0,0,0,0,-6.8351,-6.8428,-6.8423,-6.8442,-6.8544,-6.8622,-6.8635,-6.8645,-6.8615,-6.8653,-6.8676,-6.8659,-6.8809,-6.8767,-6.8785,-6.8836,-6.8984,-6.8992,-6.8999,-6.904,-6.9055,-6.9067,0,0,0,0,0,0,-6.8376,-6.8435,-6.8429,-6.8526,-6.857,-6.8618,-6.8666,-6.8659,-6.871,-6.8704,-6.8712,-6.8723,-6.8809,-6.8832,-6.8785,-6.8935,-6.8892,-6.8903,-6.8917,-6.8931,-6.8942,-6.8932,-6.8746,0,0,0,0,0,-6.8395,-6.8456,-6.8502,-6.8583,-6.8606,-6.8633,-6.8667,-6.8672,-6.8716,-6.8734,-6.8763,-6.8805,-6.8862,-6.8898,-6.8952,-6.905,-6.906,-6.9094,-6.9105,-6.9114,-6.9122,-6.9177,-6.9193,-6.9028,-6.9028,-6.9028,0,0,-6.843,-6.8469,-6.8506,-6.859,-6.8624,-6.8686,-6.8648,-6.8714,-6.876,-6.8743,-6.8825,-6.8849,-6.8896,-6.8989,-6.9031,-6.901,-6.9171,-6.9124,-6.913,-6.9134,-6.9186,-6.9202,-6.9216,-6.9033,-6.9032,-6.9031,0,0,-6.8525,-6.8563,-6.8635,-6.8672,-6.8727,-6.8745,-6.8763,-6.8814,-6.883,-6.8915,-6.8904,-6.8958,-6.9055,-6.909,-6.9121,-6.9238,-6.9224,-6.9255,-6.931,-6.9364,-6.9377,-6.9388,-6.9429,-6.9443,-6.9264,-6.9265,-6.9265,0,-6.8561,-6.8656,-6.8671,-6.8741,-6.8777,-6.8771,-6.8844,-6.8878,-6.8946,-6.8971,-6.8949,-6.9073,-6.9105,-6.9206,-6.9235,-6.9261,-6.928,-6.9247,-6.9374,-6.9386,-6.9397,-6.9435,-6.9451,-6.9268,-6.9268,-6.9267,-6.9267,0,-6.8697,-6.8764,-6.8815,-6.8886,-6.8929,-6.8999,-6.9025,-6.9067,-6.907,-6.9091,-6.9178,-6.9217,-6.9279,-6.9305,-6.9306,-6.9407,-6.9393,-6.9373,-6.9328,-6.9416,-6.9452,-6.9467,-6.9273,-6.9271,-6.927,-6.927,0,0,-6.8804,-6.8889,-6.8907,-6.8941,-6.9004,-6.9055,-6.9126,-6.9192,-6.9227,-6.9276,-6.9335,-6.9421,-6.9404,-6.9439,-6.9446,-6.9493,-6.9583,-6.9467,-6.9468,-6.9485,-6.9697,-6.9709,-6.9726,-6.9577,-6.958,-6.9582,-6.9692,0,-6.8904,-6.9032,-6.9051,-6.9163,-6.9224,-6.9223,-6.9285,-6.933,-6.9354,-6.9408,-6.9433,-6.9493,-6.9467,-6.9489,-6.9536,-6.9562,-6.9625,-6.9555,-6.9629,-6.9631,-6.9613,-6.9745,-6.9758,-6.9859,-6.9707,-6.9709,-6.9711,0,-6.9035,-6.9093,-6.9212,-6.9272,-6.9298,-6.9354,-6.9417,-6.947,-6.9522,-6.9536,-6.9579,-6.9581,-6.9654,-6.9612,-6.9712,-6.9664,-6.9697,-6.9715,-6.9719,-6.9723,-6.9673,-6.9749,-6.9891,-6.9905,-6.9734,-6.9732,-6.973,0,-6.9099,-6.9207,-6.9293,-6.9322,-6.9394,-6.9433,-6.9464,-6.9514,-6.9554,-6.9609,-6.9635,-6.9697,-6.973,-6.9778,-6.9797,-6.9765,-6.9897,-6.9855,-6.9908,-6.9908,-6.9931,-6.9929,-7.0077,-6.9959,-6.9959,-6.9958,-6.9958,0,-6.9206,-6.9278,-6.9324,-6.9376,-6.9458,-6.9481,-6.956,-6.959,-6.9636,-6.9693,-6.9696,-6.9749,-6.9773,-6.983,-6.9846,-6.9927,-6.9942,-6.9954,-6.9956,-6.9951,-6.995,-6.9969,-6.9961,-6.9962,-6.9961,-6.9961,-6.996,0,-6.9288,-6.9322,-6.9416,-6.9479,-6.9496,-6.9554,-6.9606,-6.9657,-6.9683,-6.9756,-6.9774,-6.9813,-6.9881,-6.9907,-6.9989,-7.0,-7.0093,-7.0091,-7.0075,-7.0075,-7.0126,-7.012,-7.0289,-7.0312,-7.0181,-7.0182,-7.0183,0,-6.9352,-6.9409,-6.948,-6.9521,-6.9555,-6.9619,-6.9662,-6.9688,-6.9731,-6.9799,-6.9841,-6.991,-6.9966,-7.0074,-7.0109,-7.0172,-7.017,-7.0226,-7.0179,-7.0173,-7.0168,-7.0163,-7.0169,-7.0232,-7.0233,-7.0235,-7.0235,0,-6.9461,-6.9477,-6.9539,-6.9609,-6.966,-6.9715,-6.9768,-6.9801,-6.9836,-6.9884,-6.9956,-7.0,-7.0087,-7.0155,-7.0222,-7.0252,-7.0249,-7.0252,-7.0266,-7.0259,-7.0247,-7.0253,-7.0095,-7.0246,-7.0245,-7.0244,-7.0243,-7.0243,-6.9534,-6.9586,-6.9645,-6.9715,-6.976,-6.9811,-6.9863,-6.9898,-6.996,-7.0034,-7.0047,-7.0123,-7.0178,-7.0268,-7.0302,-7.0361,-7.0346,-7.0368,-7.0373,-7.0378,-7.038,-7.0243,-7.0374,-7.0374,-7.0373,-7.0373,-7.0373,0,-6.9642,-6.9682,-6.9747,-6.9825,-6.988,-6.988,-6.994,-6.9985,-7.0054,-7.0107,-7.0165,-7.0248,-7.0316,-7.0359,-7.0427,-7.0467,-7.0467,-7.0483,-7.0478,-7.0486,-7.0391,-7.037,-7.0482,-7.0482,-7.0482,-7.0482,-7.0482,-7.0482,-6.9704,-6.9791,-6.9815,-6.9925,-6.9964,-7.0042,-7.0077,-7.0124,-7.0167,-7.0262,-7.0319,-7.0349,-7.0398,-7.0471,-7.0533,-7.0544,-7.0568,-7.0585,-7.0594,-7.0503,-7.0492,-7.0481,-7.0461,-7.0591,-7.0591,-7.0684,-7.0684,-7.0685]},{"header":{"parameterUnit":"m.s-1","parameterCategory":1,"la1":30.2991,"la2":30.254,"lo1":-89.0895,"lo2":-89.0444,"dy":0.0017,"dx":0.0017,"nx":28,"ny":28,"refTime":"2023-10-24T21:00:00:Z","depth":0,"parameterNumber":3,"parameterNumberName":"V-component_of_WINDS"},"data":[0,0,0,0,0,0,0,0,0,0,0,0,0,0,0,0,0,0,0,0,0,0,0,0,0,0,0,0,0,0,0,0,0,0,0,0,0,0,0,0,0,0,0,0,0,0,0,0,0,0,0,0,0,0,0,0,0,0,2.7028,2.7029,0,2.7174,2.7176,2.7177,2.7275,2.7276,2.7277,2.7277,2.742,2.7423,2.7426,0,0,0,0,0,0,0,0,0,0,0,0,0,2.6829,2.6832,2.7028,2.703,2.7031,2.7174,2.7176,2.7178,2.7275,2.7276,2.7277,2.7278,2.7419,2.7423,2.7427,0,0,0,0,0,0,0,0,0,0,0,0,0,2.6939,2.6833,2.7027,2.7097,2.7105,2.7173,2.7176,2.7178,2.7275,2.7276,2.7277,2.7278,2.7418,2.7422,2.7427,2.7435,0,0,2.7442,2.7444,0,0,0,0,0,0,0,0,2.6933,2.6946,2.7085,2.7093,2.7101,2.7208,2.7158,2.7264,2.7275,2.721,2.7277,2.7279,2.7348,2.7359,2.7384,2.7442,2.7448,2.7442,2.7445,2.7447,2.7448,0,0,0,0,0,0,0,2.6925,2.694,2.7086,2.7087,2.7097,2.712,2.7137,2.7179,2.7271,2.7216,2.7223,2.724,2.7353,2.7379,2.7388,2.745,2.7442,2.7446,2.7449,2.7451,2.7527,2.7526,0,0,0,0,0,0,2.6907,2.6933,2.7081,2.709,2.7018,2.7123,2.7142,2.7172,2.7271,2.7287,2.7239,2.7244,2.737,2.7382,2.7393,2.7412,2.7447,2.7451,2.7454,2.7528,2.7527,2.7526,0,0,0,0,0,0,2.6902,2.6919,2.7075,2.7014,2.7036,2.7125,2.7159,2.7175,2.7201,2.7289,2.7305,2.7249,2.7372,2.7386,2.7426,2.7418,2.7453,2.7458,2.7529,2.7527,2.7526,2.7448,0,0,0,0,0,0,2.6896,2.6917,2.6922,2.7013,2.7038,2.7106,2.7158,2.7177,2.721,2.7218,2.7302,2.7317,2.7373,2.7418,2.743,2.7425,2.7461,2.753,2.7528,2.7527,2.7452,2.7444,2.7438,0,0,0,0,0,2.6889,2.6892,2.6921,2.6939,2.7047,2.7105,2.712,2.7186,2.7209,2.7214,2.7271,2.7314,2.7417,2.7421,2.7436,2.7432,2.753,2.7529,2.7527,2.7455,2.7446,2.7438,0,0,0,0,0,0,2.6793,2.6905,2.6939,2.6972,2.7029,2.7122,2.713,2.7174,2.7224,2.7229,2.7308,2.7326,2.7357,2.7399,2.7401,2.7447,2.7479,2.748,2.7419,2.7412,2.7405,2.7394,2.7465,0,0,0,0,0,2.6777,2.6817,2.6911,2.6931,2.6958,2.7039,2.7067,2.7114,2.7175,2.7199,2.7259,2.7315,2.736,2.7388,2.7434,2.7458,2.7479,2.7463,2.7456,2.745,2.745,2.7469,2.7464,2.752,2.752,2.752,0,0,2.6742,2.6808,2.6827,2.6914,2.6963,2.7003,2.7059,2.7096,2.7126,2.7204,2.7246,2.7292,2.736,2.7392,2.7409,2.7428,2.744,2.7448,2.7442,2.7446,2.7467,2.7461,2.7456,2.7519,2.7519,2.7519,0,0,2.6698,2.6752,2.6776,2.6825,2.6901,2.6956,2.6961,2.7049,2.7083,2.7127,2.7188,2.7223,2.7299,2.7346,2.7379,2.7358,2.74,2.737,2.7335,2.7352,2.7347,2.7344,2.7338,2.7335,2.737,2.737,2.737,0,2.6645,2.6708,2.6782,2.6818,2.6855,2.6931,2.6956,2.6999,2.7085,2.7108,2.7128,2.7228,2.7278,2.7324,2.732,2.7344,2.7353,2.7361,2.7342,2.734,2.7338,2.7333,2.733,2.7366,2.7366,2.7367,2.7367,0,2.6639,2.6682,2.6692,2.6777,2.6815,2.6845,2.6923,2.6952,2.6996,2.7048,2.7093,2.7158,2.722,2.7234,2.7276,2.7287,2.7296,2.7328,2.7362,2.7327,2.7324,2.7323,2.736,2.7362,2.7363,2.7364,0,0,2.6538,2.6667,2.6669,2.671,2.6801,2.6835,2.6869,2.6933,2.6957,2.7014,2.7045,2.7109,2.7141,2.7179,2.7227,2.7242,2.7224,2.7272,2.7275,2.7263,2.7242,2.7219,2.7215,2.7252,2.7252,2.7252,2.7237,0,2.651,2.6578,2.6647,2.6689,2.6731,2.6805,2.6835,2.6893,2.6943,2.6985,2.7039,2.7085,2.7122,2.7146,2.7164,2.7222,2.7221,2.7224,2.7282,2.7283,2.7264,2.7213,2.7188,2.717,2.7236,2.7236,2.7236,0,2.6486,2.6543,2.6591,2.6681,2.6701,2.6727,2.6793,2.6831,2.6899,2.6935,2.698,2.7032,2.7072,2.7101,2.7157,2.7157,2.7185,2.7217,2.7219,2.7227,2.7258,2.7222,2.7166,2.7164,2.7234,2.7234,2.7235,0,2.641,2.6499,2.654,2.6572,2.6678,2.6695,2.6739,2.6808,2.6843,2.69,2.6924,2.6983,2.7016,2.706,2.7127,2.7142,2.7177,2.7211,2.7208,2.7206,2.7212,2.721,2.7161,2.7227,2.7227,2.7227,2.7227,0,2.6372,2.6398,2.6508,2.6533,2.6566,2.6645,2.6674,2.6725,2.6787,2.6823,2.6889,2.6921,2.7007,2.705,2.7102,2.7142,2.7155,2.7185,2.7199,2.718,2.7176,2.72,2.7203,2.7227,2.7227,2.7227,2.7227,0,2.6293,2.6367,2.6417,2.6514,2.6539,2.6559,2.6642,2.6669,2.6724,2.6769,2.6784,2.687,2.6924,2.6995,2.707,2.7105,2.7139,2.716,2.7117,2.7125,2.7119,2.7119,2.7083,2.7084,2.7147,2.7147,2.7146,0,2.6264,2.6287,2.6388,2.6418,2.6462,2.6509,2.6546,2.6625,2.6661,2.6742,2.676,2.6819,2.6871,2.6953,2.7021,2.708,2.7103,2.7087,2.7112,2.7094,2.7105,2.7104,2.7107,2.708,2.7079,2.7079,2.7078,0,2.6206,2.6243,2.6295,2.6361,2.6405,2.646,2.6517,2.6538,2.6629,2.6666,2.6723,2.6764,2.6843,2.6901,2.6969,2.7014,2.7061,2.707,2.7072,2.7054,2.7029,2.7044,2.7101,2.707,2.7071,2.7071,2.7072,2.7072,2.6153,2.6178,2.6254,2.6311,2.6364,2.6417,2.6449,2.6509,2.6559,2.6631,2.6674,2.673,2.68,2.6897,2.694,2.6985,2.7003,2.7006,2.7007,2.7007,2.7002,2.7021,2.6997,2.6997,2.6998,2.6998,2.6998,0,2.6101,2.6154,2.6206,2.6286,2.6331,2.6375,2.6442,2.6476,2.6525,2.6588,2.6639,2.6706,2.6764,2.6837,2.6901,2.6922,2.6946,2.6936,2.6936,2.6946,2.6981,2.6973,2.6916,2.6916,2.6916,2.6916,2.6916,2.6916,2.6079,2.6125,2.617,2.6243,2.6296,2.6354,2.6389,2.6438,2.6489,2.6562,2.6612,2.666,2.6728,2.6797,2.6852,2.6873,2.6893,2.6877,2.6904,2.6936,2.6943,2.695,2.6943,2.6881,2.6881,2.6866,2.6866,2.6865]}]]